DIANT EDLP-EDLW

Flight info

Callsign DIANT
Flight time 0h 27m
Altitude
Route DCT
Aircraft DA42

Departure

Time 2026-05-06 17:23
Airport Paderborn Lippstadt Airport (EDLP)

Arrival

Time 2026-05-06 17:50
Airport Dortmund Airport (EDLW)
Time Latitude Longitude Altitude Speed Heading
2026-05-06 17:13 51.61058 8.61768 696 ft 0 kts 147°
2026-05-06 17:18 51.61059 8.61786 699 ft 9 kts 329°
2026-05-06 17:18 51.61128 8.61768 701 ft 13 kts
2026-05-06 17:18 51.61173 8.61731 697 ft 0 kts 327°
2026-05-06 17:19 51.61194 8.61710 701 ft 0 kts 327°
2026-05-06 17:19 51.61194 8.61709 701 ft 0 kts 327°
2026-05-06 17:20 51.61241 8.61708 701 ft 17 kts 41°
2026-05-06 17:20 51.61307 8.61868 699 ft 17 kts 54°
2026-05-06 17:20 51.61376 8.62023 698 ft 16 kts 14°
2026-05-06 17:20 51.61431 8.61985 697 ft 0 kts 305°
2026-05-06 17:21 51.61431 8.61983 698 ft 1 kts 304°
2026-05-06 17:21 51.61439 8.61907 698 ft 15 kts 271°
2026-05-06 17:21 51.61435 8.61728 701 ft 15 kts 264°
2026-05-06 17:22 51.61300 8.61365 705 ft 67 kts 238°
2026-05-06 17:22 51.60966 8.60549 725 ft 101 kts 237°
2026-05-06 17:22 51.60651 8.59804 1111 ft 91 kts 240°
2026-05-06 17:22 51.60487 8.58691 1236 ft 112 kts 268°
2026-05-06 17:23 51.60417 8.57330 1379 ft 130 kts 269°
2026-05-06 17:23 51.60378 8.55857 1593 ft 136 kts 270°
2026-05-06 17:23 51.60307 8.54387 2014 ft 130 kts 268°
2026-05-06 17:23 51.60224 8.52818 2030 ft 150 kts 268°
2026-05-06 17:24 51.60148 8.51082 2033 ft 161 kts 268°
2026-05-06 17:24 51.60079 8.49241 2038 ft 167 kts 271°
2026-05-06 17:24 51.60234 8.47387 2034 ft 168 kts 288°
2026-05-06 17:24 51.60750 8.45721 2028 ft 167 kts 307°
2026-05-06 17:25 51.61451 8.44243 2031 ft 166 kts 310°
2026-05-06 17:25 51.62167 8.42773 2055 ft 167 kts 309°
2026-05-06 17:25 51.62881 8.41294 2058 ft 168 kts 309°
2026-05-06 17:25 51.63597 8.39818 2051 ft 167 kts 309°
2026-05-06 17:26 51.64281 8.38303 2045 ft 170 kts 297°
2026-05-06 17:26 51.64382 8.36425 2040 ft 172 kts 257°
2026-05-06 17:26 51.63895 8.34665 2044 ft 172 kts 245°
2026-05-06 17:26 51.63326 8.32973 2042 ft 172 kts 244°
2026-05-06 17:27 51.62747 8.31294 2048 ft 171 kts 243°
2026-05-06 17:27 51.62168 8.29610 2050 ft 173 kts 243°
2026-05-06 17:27 51.61580 8.27910 2052 ft 175 kts 244°
2026-05-06 17:27 51.60981 8.26208 2050 ft 175 kts 243°
2026-05-06 17:28 51.60387 8.24512 2123 ft 170 kts 243°
2026-05-06 17:28 51.59839 8.22946 2498 ft 153 kts 243°
2026-05-06 17:28 51.59334 8.21512 2868 ft 143 kts 243°
2026-05-06 17:28 51.58856 8.20144 3247 ft 138 kts 243°
2026-05-06 17:29 51.58390 8.18827 3634 ft 134 kts 243°
2026-05-06 17:29 51.57930 8.17542 4014 ft 132 kts 243°
2026-05-06 17:29 51.57475 8.16278 4405 ft 130 kts 243°
2026-05-06 17:29 51.57028 8.15027 4790 ft 128 kts 243°
2026-05-06 17:30 51.56591 8.13805 5160 ft 127 kts 243°
2026-05-06 17:30 51.56154 8.12579 5542 ft 126 kts 243°
2026-05-06 17:30 51.55596 8.11482 5847 ft 134 kts 225°
2026-05-06 17:30 51.54839 8.10396 5862 ft 156 kts 224°
2026-05-06 17:31 51.53995 8.09180 5866 ft 168 kts 224°
2026-05-06 17:31 51.53107 8.07889 5863 ft 176 kts 224°
2026-05-06 17:31 51.52193 8.06565 5859 ft 178 kts 224°
2026-05-06 17:31 51.51280 8.05218 5862 ft 178 kts 225°
2026-05-06 17:32 51.50362 8.03879 5861 ft 179 kts 225°
2026-05-06 17:32 51.49437 8.02546 5864 ft 179 kts 224°
2026-05-06 17:32 51.48508 8.01219 5866 ft 179 kts 224°
2026-05-06 17:32 51.47585 7.99874 5866 ft 180 kts 224°
2026-05-06 17:33 51.46664 7.98522 5866 ft 179 kts 225°
2026-05-06 17:33 51.45740 7.97178 5865 ft 179 kts 225°
2026-05-06 17:33 51.44819 7.95830 5865 ft 179 kts 224°
2026-05-06 17:33 51.43905 7.94473 5859 ft 179 kts 224°
2026-05-06 17:34 51.42988 7.93117 5852 ft 179 kts 224°
2026-05-06 17:34 51.42065 7.91768 5861 ft 179 kts 224°
2026-05-06 17:34 51.41142 7.90427 5861 ft 179 kts 224°
2026-05-06 17:34 51.40228 7.89084 5690 ft 170 kts 225°
2026-05-06 17:35 51.39489 7.87807 5373 ft 145 kts 238°
2026-05-06 17:35 51.38964 7.86532 5018 ft 131 kts 240°
2026-05-06 17:35 51.38568 7.85320 4666 ft 119 kts 256°
2026-05-06 17:36 51.38650 7.82928 3934 ft 104 kts 287°
2026-05-06 17:36 51.38826 7.81708 3592 ft 133 kts 287°
2026-05-06 17:36 51.39077 7.80101 3248 ft 161 kts 287°
2026-05-06 17:36 51.39367 7.78283 2894 ft 175 kts 287°
2026-05-06 17:37 51.39684 7.76363 2546 ft 182 kts 287°
2026-05-06 17:37 51.40020 7.74377 2265 ft 183 kts 287°
2026-05-06 17:37 51.40392 7.72495 2264 ft 173 kts 292°
2026-05-06 17:37 51.40802 7.70722 2257 ft 167 kts 293°
2026-05-06 17:38 51.41208 7.68995 2252 ft 164 kts 293°
2026-05-06 17:38 51.41622 7.67301 2249 ft 164 kts 297°
2026-05-06 17:38 51.42108 7.65629 2247 ft 166 kts 305°
2026-05-06 17:38 51.42801 7.64167 2245 ft 164 kts 319°
2026-05-06 17:39 51.43663 7.62969 2253 ft 165 kts 324°
2026-05-06 17:39 51.44557 7.61802 2251 ft 166 kts 324°
2026-05-06 17:39 51.45457 7.60631 2247 ft 166 kts 324°
2026-05-06 17:39 51.46350 7.59467 2249 ft 165 kts 324°
2026-05-06 17:40 51.47172 7.58181 2247 ft 165 kts 317°
2026-05-06 17:40 51.47964 7.56851 2251 ft 165 kts 317°
2026-05-06 17:40 51.48719 7.55630 2179 ft 137 kts 331°
2026-05-06 17:40 51.49450 7.56043 1496 ft 118 kts 35°
2026-05-06 17:41 51.50073 7.56714 1123 ft 105 kts 34°
2026-05-06 17:41 51.50536 7.57623 855 ft 107 kts 56°
2026-05-06 17:41 51.50907 7.58659 715 ft 106 kts 55°
2026-05-06 17:41 51.51258 7.59601 597 ft 94 kts 54°
2026-05-06 17:42 51.51578 7.60506 448 ft 91 kts 54°
2026-05-06 17:42 51.51850 7.61270 414 ft 79 kts 61°
2026-05-06 17:42 51.52171 7.62187 455 ft 109 kts 56°
2026-05-06 17:42 51.52634 7.62981 859 ft 91 kts
2026-05-06 17:43 51.52865 7.62251 1125 ft 110 kts 244°
2026-05-06 17:43 51.52523 7.61060 1114 ft 121 kts 251°
2026-05-06 17:43 51.52214 7.59817 1185 ft 119 kts 253°
2026-05-06 17:43 51.51934 7.58579 1174 ft 116 kts 255°
2026-05-06 17:44 51.51669 7.57392 1178 ft 110 kts 252°
2026-05-06 17:44 51.51139 7.57005 1052 ft 109 kts 124°
2026-05-06 17:44 51.51012 7.58181 810 ft 108 kts 83°
2026-05-06 17:44 51.51169 7.59331 639 ft 102 kts 62°
2026-05-06 17:45 51.51480 7.60205 483 ft 86 kts 53°
2026-05-06 17:45 51.51768 7.61037 415 ft 72 kts 53°
2026-05-06 17:45 51.52032 7.61786 436 ft 91 kts 54°
2026-05-06 17:45 51.52435 7.62297 781 ft 80 kts 334°
2026-05-06 17:46 51.52917 7.61706 924 ft 106 kts 278°
2026-05-06 17:46 51.52505 7.60514 910 ft 133 kts 244°
2026-05-06 17:46 51.52115 7.59140 1015 ft 136 kts 249°
2026-05-06 17:46 51.51768 7.57715 1130 ft 136 kts 252°
2026-05-06 17:47 51.51437 7.56321 1376 ft 133 kts 250°
2026-05-06 17:47 51.51085 7.54901 1509 ft 138 kts 252°
2026-05-06 17:47 51.50732 7.53466 1697 ft 137 kts 252°
2026-05-06 17:47 51.50344 7.52039 1841 ft 141 kts 238°
2026-05-06 17:48 51.49525 7.52075 1939 ft 134 kts 121°
2026-05-06 17:48 51.49529 7.53491 1711 ft 133 kts 86°
2026-05-06 17:48 51.49657 7.54884 1621 ft 127 kts 67°
2026-05-06 17:48 51.49949 7.56006 1747 ft 91 kts 60°
2026-05-06 17:49 51.50263 7.56895 1381 ft 98 kts 54°
2026-05-06 17:49 51.50614 7.57829 1054 ft 97 kts 55°
2026-05-06 17:49 51.50951 7.58757 806 ft 97 kts 52°
2026-05-06 17:49 51.51298 7.59706 653 ft 101 kts 55°
2026-05-06 17:50 51.51638 7.60714 508 ft 97 kts 56°
2026-05-06 17:50 51.51927 7.61486 409 ft 64 kts 61°
2026-05-06 17:50 51.52096 7.61969 408 ft 33 kts 59°
2026-05-06 17:50 51.52191 7.62255 405 ft 25 kts 75°
2026-05-06 17:51 51.52101 7.62389 404 ft 17 kts 149°
2026-05-06 17:51 51.52037 7.62345 404 ft 19 kts 241°
2026-05-06 17:51 51.51941 7.62073 408 ft 33 kts 240°
2026-05-06 17:51 51.51828 7.61752 412 ft 31 kts 241°
2026-05-06 17:52 51.51735 7.61489 410 ft 25 kts 241°
2026-05-06 17:52 51.51607 7.61122 423 ft 34 kts 240°
2026-05-06 17:52 51.51507 7.61039 429 ft 15 kts 229°
2026-05-06 17:52 51.51426 7.60816 424 ft 27 kts 242°
2026-05-06 17:53 51.51316 7.60505 436 ft 34 kts 242°
2026-05-06 17:53 51.51217 7.60222 434 ft 25 kts 240°
2026-05-06 17:53 51.51159 7.60226 455 ft 13 kts 56°
2026-05-06 17:53 51.51227 7.60383 451 ft 17 kts 69°
2026-05-06 17:54 51.51221 7.60454 456 ft 0 kts 101°